FENGYUN 1C DEB, 30686

Orbit data source: Space-Track

FENGYUN 1C DEB, 30686 is space debris in SSO originally from a launch on Mon, 10 May 1999 UTC launched from the Taiyaun Space Center, China (TSC). Fengyun 1C debris stems from the Chinese weather satellite Fengyun-1C, which was intentionally destroyed by a Chinese anti-satellite missile in 2007. This event dramatically increased the amount of space debris, with thousands of trackable fragments posing hazards to satellites and human spaceflight. The Fengyun 1C debris cloud has become a focal point in discussions about space sustainability and the need for international regulations to prevent the creation of new debris.

Loading next visibility...
Identifier
30686, 1999-025AQU
Orbit
SSO
Country
Flag of CNCN / PRC
Related business
Manufacturer
Unknown
Mission
Spacecraft
Bus & Motor
Unknown
Mass
Unknown
Launch date (UTC)
1999-05-10 (27 years ago)
Launch vehicle
Unknown
Launch site
Taiyaun Space Center, China (TSC)
Object type
Payload
Rocket body
Debris
Shape & HBR
Unknown shape, 0.1 m
Radar Cross Section
Small (<0.1 m²)

Expand to show TLE details & history
Last TLE update: 17 hours ago

TLE from 17 hours ago
0 FENGYUN 1C DEB
1 30686U 99025AQU 26207.57892211  .00004674  00000-0  58550-3 0  9997
2 30686  99.0159  72.4633 0138915 135.7488 256.0302 14.76177140 29328
Epoch: 2026-07-26T13:53Z
TLE epoch observation values (Epoch: 2026-07-26T13:53:38.870Z)
Latitude
29.8817°
Longitude
-85.4262°
Altitude
670.01 km
Speed
7.511 km/s
True Right ascension
04h 29m 02s
True Declination
29° 43' 53"
Sunlit
Object was in daylight at epoch
Visualization orbit readout
Latitude
Unknown
Longitude
Unknown
Altitude
Unknown
Speed
Unknown
Apparent Right ascension
Unknown
Apparent Declination
Unknown
Sunlit
N/A
Visualization observer readout
Local Sidereal Time
20:04:22
Azimuth
Unknown
Elevation
Unknown
Doppler factor
Unknown
Orbital elements
Apogee altitude
735.987 km
Perigee altitude
541.044 km
Semi-major axis
7,016.653 km
Eccentricity
0.01389
Inclination
99.0159°
RAAN
72.4633°
Arg. of periapsis
135.7488°
True anomaly
254.49207°
Mean anomaly
256.0302°
Eccentric anomaly
255.26047°
Mean motion
3.69274 °/min
Orbital period
97.49 mins
BSTAR
0.0005855

Documentation

Showing up to 5 results
|